STARLINK-36537, 67516

Orbit data source: Space-Track

STARLINK-36537, 67516 is a payload satellite owned by SpaceX/Seattle (US) in LEO that was launched on Sun, 18 Jan 2026 UTC via an FALCON 9 launch vehicle from the Air Force Eastern Test Range (AFETR). Payload-class satellites include a variety of spacecraft equipped with specific instruments for various scientific and technological missions. These include communications satellites like Starlink; space stations such as the ISS; scientific satellites like the Hubble; Earth observation satellites from companies like Planet Labs, Umbra, and HawkEye 360; GPS; miniature CubeSats for education and research; and military/defense satellites.

Loading next visibility...
Identifier
67516, 2026-012Z
Orbit
LEO
Country
Flag of USUS
Related business
Manufacturer
SpaceX/Seattle
Mission
Operational Commercial Communications
Bus & Motor
STARLINK V2MO, Unknown motor
Mass
575 kg wet, ~530 kg dry
Launch date (UTC)
2026-01-18 (5 months ago)
Launch vehicle
FALCON 9
Launch site
Air Force Eastern Test Range (AFETR)
Object type
Payload
Rocket body
Debris
Shape & HBR
Box + 2 Pan, 17.7 m
Radar Cross Section
36.964 m², Large (>1 m²)

Expand to show TLE details & history
Last TLE update: 17 hours ago

TLE from 17 hours ago
0 STARLINK-36537
1 67516U 26012Z   26171.15145916  .00012828  00000-0  47462-3 0  9992
2 67516  43.0009  95.6071 0000649 267.2707  92.8071 15.27597742 23439
Epoch: 2026-06-20T03:38Z
TLE epoch observation values (Epoch: 2026-06-20T03:38:06.071Z)
Latitude
0.00003°
Longitude
132.71164°
Altitude
482.793 km
Speed
7.626 km/s
True Right ascension
06h 22m 25s
True Declination
0° 00' 00"
Sunlit
Object was in daylight at epoch
Visualization orbit readout
Latitude
Unknown
Longitude
Unknown
Altitude
Unknown
Speed
Unknown
Apparent Right ascension
Unknown
Apparent Declination
Unknown
Sunlit
N/A
Visualization observer readout
Local Sidereal Time
07:24:40
Azimuth
Unknown
Elevation
Unknown
Doppler factor
Unknown
Orbital elements
Apogee altitude
485.386 km
Perigee altitude
484.496 km
Semi-major axis
6,863.078 km
Eccentricity
0.00006
Inclination
43.0009°
RAAN
95.6071°
Arg. of periapsis
267.2707°
True anomaly
92.81453°
Mean anomaly
92.8071°
Eccentric anomaly
92.81081°
Mean motion
3.81737 °/min
Orbital period
94.31 mins
BSTAR
0.00047462
Loading maneuver chart data...
Computing Atmospheric mass density...
Loading historical data...
Loading historical data...
Loading historical data...
Loading historical data...
Loading historical data...
Loading historical data...
Loading historical data...

Documentation

Showing up to 5 results
|